Year,Month,Day,Hour,Minute,Value (Times are PST for temperature in C)
2014,06,02,00,00,13.90
2014,06,02,00,01,13.90
2014,06,02,00,02,13.90
2014,06,02,00,03,13.90
2014,06,02,00,04,13.80
2014,06,02,00,05,13.80
2014,06,02,00,06,13.80
2014,06,02,00,07,13.80
2014,06,02,00,08,13.70
2014,06,02,00,09,13.70
2014,06,02,00,10,13.70
2014,06,02,00,11,13.70
2014,06,02,00,12,13.60
2014,06,02,00,13,13.60
2014,06,02,00,14,13.60
2014,06,02,00,15,13.60
2014,06,02,00,16,13.50
2014,06,02,00,17,13.50
2014,06,02,00,18,13.50
2014,06,02,00,19,13.50
2014,06,02,00,20,13.50
2014,06,02,00,21,13.40
2014,06,02,00,22,13.40
2014,06,02,00,23,13.40
2014,06,02,00,24,13.40
2014,06,02,00,25,13.40
2014,06,02,00,26,13.40
2014,06,02,00,27,13.40
2014,06,02,00,28,13.40
2014,06,02,00,29,13.40
2014,06,02,00,30,13.40
2014,06,02,00,31,13.40
2014,06,02,00,32,13.40
2014,06,02,00,33,13.40
2014,06,02,00,34,13.40
2014,06,02,00,35,13.40
2014,06,02,00,36,13.40
2014,06,02,00,37,13.40
2014,06,02,00,38,13.40
2014,06,02,00,39,13.30
2014,06,02,00,40,13.30
2014,06,02,00,41,13.30
2014,06,02,00,42,13.30
2014,06,02,00,43,13.30
2014,06,02,00,44,13.30
2014,06,02,00,45,13.30
2014,06,02,00,46,13.30
2014,06,02,00,47,13.30
2014,06,02,00,48,13.30
2014,06,02,00,49,13.20
2014,06,02,00,50,13.20
2014,06,02,00,51,13.20
2014,06,02,00,52,13.20
2014,06,02,00,53,13.20
2014,06,02,00,54,13.10
2014,06,02,00,55,13.10
2014,06,02,00,56,13.10
2014,06,02,00,57,13.10
2014,06,02,00,58,13.00
2014,06,02,00,59,13.00
2014,06,02,01,00,13.00
2014,06,02,01,01,12.90
2014,06,02,01,02,12.90
2014,06,02,01,03,12.90
2014,06,02,01,04,12.90
2014,06,02,01,05,12.80
2014,06,02,01,06,12.80
2014,06,02,01,07,12.80
2014,06,02,01,08,12.80
2014,06,02,01,09,12.80
2014,06,02,01,10,12.70
2014,06,02,01,11,12.70
2014,06,02,01,12,12.70
2014,06,02,01,13,12.70
2014,06,02,01,14,12.70
2014,06,02,01,15,12.70
2014,06,02,01,16,12.70
2014,06,02,01,17,12.70
2014,06,02,01,18,12.70
2014,06,02,01,19,12.70
2014,06,02,01,20,12.60
2014,06,02,01,21,12.60
2014,06,02,01,22,12.60
2014,06,02,01,23,12.60
2014,06,02,01,24,12.60
2014,06,02,01,25,12.50
2014,06,02,01,26,12.50
2014,06,02,01,27,12.50
2014,06,02,01,28,12.40
2014,06,02,01,29,12.40
2014,06,02,01,30,12.40
2014,06,02,01,31,12.40
2014,06,02,01,32,12.40
2014,06,02,01,33,12.40
2014,06,02,01,34,12.30
2014,06,02,01,35,12.30
2014,06,02,01,36,12.30
2014,06,02,01,37,12.30
2014,06,02,01,38,12.30
2014,06,02,01,39,12.30
2014,06,02,01,40,12.30
2014,06,02,01,41,12.30
2014,06,02,01,42,12.20
2014,06,02,01,43,12.20
2014,06,02,01,44,12.20
2014,06,02,01,45,12.20
2014,06,02,01,46,12.20
2014,06,02,01,47,12.20
2014,06,02,01,48,12.20
2014,06,02,01,49,12.20
2014,06,02,01,50,12.20
2014,06,02,01,51,12.20
2014,06,02,01,52,12.20
2014,06,02,01,53,12.20
2014,06,02,01,54,12.10
2014,06,02,01,55,12.10
2014,06,02,01,56,12.10
2014,06,02,01,57,12.10
2014,06,02,01,58,12.10
2014,06,02,01,59,12.00
2014,06,02,02,00,12.00
2014,06,02,02,01,12.00
2014,06,02,02,02,11.90
2014,06,02,02,03,11.90
2014,06,02,02,04,11.90
2014,06,02,02,05,11.90
2014,06,02,02,06,11.90
2014,06,02,02,07,11.90
2014,06,02,02,08,11.80
2014,06,02,02,09,11.80
2014,06,02,02,10,11.80
2014,06,02,02,11,11.80
2014,06,02,02,12,11.80
2014,06,02,02,13,11.80
2014,06,02,02,14,11.80
2014,06,02,02,15,11.70
2014,06,02,02,16,11.70
2014,06,02,02,17,11.70
2014,06,02,02,18,11.70
2014,06,02,02,19,11.70
2014,06,02,02,20,11.70
2014,06,02,02,21,11.70
2014,06,02,02,22,11.60
2014,06,02,02,23,11.60
2014,06,02,02,24,11.60
2014,06,02,02,25,11.60
2014,06,02,02,26,11.60
2014,06,02,02,27,11.60
2014,06,02,02,28,11.50
2014,06,02,02,29,11.50
2014,06,02,02,30,11.50
2014,06,02,02,31,11.40
2014,06,02,02,32,11.40
2014,06,02,02,33,11.40
2014,06,02,02,34,11.40
2014,06,02,02,35,11.40
2014,06,02,02,36,11.40
2014,06,02,02,37,11.30
2014,06,02,02,38,11.30
2014,06,02,02,39,11.30
2014,06,02,02,40,11.30
2014,06,02,02,41,11.30
2014,06,02,02,42,11.30
2014,06,02,02,43,11.30
2014,06,02,02,44,11.30
2014,06,02,02,45,11.30
2014,06,02,02,46,11.20
2014,06,02,02,47,11.20
2014,06,02,02,48,11.20
2014,06,02,02,49,11.20
2014,06,02,02,50,11.20
2014,06,02,02,51,11.20
2014,06,02,02,52,11.20
2014,06,02,02,53,11.20
2014,06,02,02,54,11.20
2014,06,02,02,55,11.20
2014,06,02,02,56,11.20
2014,06,02,02,57,11.10
2014,06,02,02,58,11.10
2014,06,02,02,59,11.10
2014,06,02,03,00,11.10
2014,06,02,03,01,11.10
2014,06,02,03,02,11.00
2014,06,02,03,03,11.00
2014,06,02,03,04,11.00
2014,06,02,03,05,11.00
2014,06,02,03,06,11.00
2014,06,02,03,07,11.00
2014,06,02,03,08,10.90
2014,06,02,03,09,10.90
2014,06,02,03,10,10.90
2014,06,02,03,11,10.90
2014,06,02,03,12,10.90
2014,06,02,03,13,10.90
2014,06,02,03,14,10.90
2014,06,02,03,15,10.80
2014,06,02,03,16,10.80
2014,06,02,03,17,10.80
2014,06,02,03,18,10.80
2014,06,02,03,19,10.80
2014,06,02,03,20,10.80
2014,06,02,03,21,10.80
2014,06,02,03,22,10.80
2014,06,02,03,23,10.70
2014,06,02,03,24,10.80
2014,06,02,03,25,10.70
2014,06,02,03,26,10.70
2014,06,02,03,27,10.70
2014,06,02,03,28,10.70
2014,06,02,03,29,10.70
2014,06,02,03,30,10.70
2014,06,02,03,31,10.70
2014,06,02,03,32,10.70
2014,06,02,03,33,10.60
2014,06,02,03,34,10.60
2014,06,02,03,35,10.60
2014,06,02,03,36,10.60
2014,06,02,03,37,10.60
2014,06,02,03,38,10.60
2014,06,02,03,39,10.60
2014,06,02,03,40,10.50
2014,06,02,03,41,10.50
2014,06,02,03,42,10.50
2014,06,02,03,43,10.50
2014,06,02,03,44,10.50
2014,06,02,03,45,10.40
2014,06,02,03,46,10.40
2014,06,02,03,47,10.40
2014,06,02,03,48,10.40
2014,06,02,03,49,10.40
2014,06,02,03,50,10.40
2014,06,02,03,51,10.40
2014,06,02,03,52,10.40
2014,06,02,03,53,10.40
2014,06,02,03,54,10.40
2014,06,02,03,55,10.40
2014,06,02,03,56,10.40
2014,06,02,03,57,10.40
2014,06,02,03,58,10.40
2014,06,02,03,59,10.40
2014,06,02,04,00,10.30
2014,06,02,04,01,10.30
2014,06,02,04,02,10.30
2014,06,02,04,03,10.30
2014,06,02,04,04,10.30
2014,06,02,04,05,10.30
2014,06,02,04,06,10.30
2014,06,02,04,07,10.30
2014,06,02,04,08,10.20
2014,06,02,04,09,10.20
2014,06,02,04,10,10.20
2014,06,02,04,11,10.20
2014,06,02,04,12,10.20
2014,06,02,04,13,10.20
2014,06,02,04,14,10.20
2014,06,02,04,15,10.20
2014,06,02,04,16,10.20
2014,06,02,04,17,10.20
2014,06,02,04,18,10.10
2014,06,02,04,19,10.10
2014,06,02,04,20,10.10
2014,06,02,04,21,10.10
2014,06,02,04,22,10.10
2014,06,02,04,23,10.00
2014,06,02,04,24,10.00
2014,06,02,04,25,10.00
2014,06,02,04,26,10.00
2014,06,02,04,27,9.90
2014,06,02,04,28,9.90
2014,06,02,04,29,9.90
2014,06,02,04,30,9.90
2014,06,02,04,31,9.80
2014,06,02,04,32,9.80
2014,06,02,04,33,9.80
2014,06,02,04,34,9.80
2014,06,02,04,35,9.80
2014,06,02,04,36,9.80
2014,06,02,04,37,9.80
2014,06,02,04,38,9.80
2014,06,02,04,39,9.80
2014,06,02,04,40,9.80
2014,06,02,04,41,9.70
2014,06,02,04,42,9.70
2014,06,02,04,43,9.70
2014,06,02,04,44,9.70
2014,06,02,04,45,9.70
2014,06,02,04,46,9.70
2014,06,02,04,47,9.70
2014,06,02,04,48,9.70
2014,06,02,04,49,9.60
2014,06,02,04,50,9.60
2014,06,02,04,51,9.60
2014,06,02,04,52,9.60
2014,06,02,04,53,9.60
2014,06,02,04,54,9.60
2014,06,02,04,55,9.60
2014,06,02,04,56,9.60
2014,06,02,04,57,9.70
2014,06,02,04,58,9.70
2014,06,02,04,59,9.70
2014,06,02,05,00,9.70
2014,06,02,05,01,9.70
2014,06,02,05,02,9.70
2014,06,02,05,03,9.70
2014,06,02,05,04,9.70
2014,06,02,05,05,9.70
2014,06,02,05,06,9.70
2014,06,02,05,07,9.70
2014,06,02,05,08,9.70
2014,06,02,05,09,9.70
2014,06,02,05,10,9.70
2014,06,02,05,11,9.70
2014,06,02,05,12,9.70
2014,06,02,05,13,9.70
2014,06,02,05,14,9.70
2014,06,02,05,15,9.70
2014,06,02,05,16,9.70
2014,06,02,05,17,9.70
2014,06,02,05,18,9.70
2014,06,02,05,19,9.70
2014,06,02,05,20,9.70
2014,06,02,05,21,9.70
2014,06,02,05,22,9.70
2014,06,02,05,23,9.70
2014,06,02,05,24,9.70
2014,06,02,05,25,9.70
2014,06,02,05,26,9.70
2014,06,02,05,27,9.60
2014,06,02,05,28,9.60
2014,06,02,05,29,9.60
2014,06,02,05,30,9.60
2014,06,02,05,31,9.60
2014,06,02,05,32,9.60
2014,06,02,05,33,9.60
2014,06,02,05,34,9.50
2014,06,02,05,35,9.50
2014,06,02,05,36,9.50
2014,06,02,05,37,9.50
2014,06,02,05,38,9.50
2014,06,02,05,39,9.50
2014,06,02,05,40,9.50
2014,06,02,05,41,9.50
2014,06,02,05,42,9.40
2014,06,02,05,43,9.40
2014,06,02,05,44,9.40
2014,06,02,05,45,9.40
2014,06,02,05,46,9.40
2014,06,02,05,47,9.40
2014,06,02,05,48,9.40
2014,06,02,05,49,9.40
2014,06,02,05,50,9.40
2014,06,02,05,51,9.40
2014,06,02,05,52,9.40
2014,06,02,05,53,9.40
2014,06,02,05,54,9.40
2014,06,02,05,55,9.40
2014,06,02,05,56,9.40
2014,06,02,05,57,9.40
2014,06,02,05,58,9.40
2014,06,02,05,59,9.40
2014,06,02,06,00,9.50
2014,06,02,06,01,9.50
2014,06,02,06,02,9.50
2014,06,02,06,03,9.50
2014,06,02,06,04,9.50
2014,06,02,06,05,9.60
2014,06,02,06,06,9.60
2014,06,02,06,07,9.60
2014,06,02,06,08,9.60
2014,06,02,06,09,9.60
2014,06,02,06,10,9.60
2014,06,02,06,11,9.60
2014,06,02,06,12,9.60
2014,06,02,06,13,9.70
2014,06,02,06,14,9.70
2014,06,02,06,15,9.70
2014,06,02,06,16,9.70
2014,06,02,06,17,9.70
2014,06,02,06,18,9.70
2014,06,02,06,19,9.70
2014,06,02,06,20,9.70
2014,06,02,06,21,9.70
2014,06,02,06,22,9.70
2014,06,02,06,23,9.70
2014,06,02,06,24,9.70
2014,06,02,06,25,9.70
2014,06,02,06,26,9.70
2014,06,02,06,27,9.70
2014,06,02,06,28,9.70
2014,06,02,06,29,9.80
2014,06,02,06,30,9.80
2014,06,02,06,31,9.80
2014,06,02,06,32,9.80
2014,06,02,06,33,9.80
2014,06,02,06,34,9.80
2014,06,02,06,35,9.80
2014,06,02,06,36,9.90
2014,06,02,06,37,9.90
2014,06,02,06,38,9.90
2014,06,02,06,39,9.90
2014,06,02,06,40,9.90
2014,06,02,06,41,10.00
2014,06,02,06,42,10.00
2014,06,02,06,43,10.00
2014,06,02,06,44,10.10
2014,06,02,06,45,10.10
2014,06,02,06,46,10.10
2014,06,02,06,47,10.20
2014,06,02,06,48,10.20
2014,06,02,06,49,10.20
2014,06,02,06,50,10.30
2014,06,02,06,51,10.30
2014,06,02,06,52,10.30
2014,06,02,06,53,10.30
2014,06,02,06,54,10.40
2014,06,02,06,55,10.40
2014,06,02,06,56,10.40
2014,06,02,06,57,10.50
2014,06,02,06,58,10.50
2014,06,02,06,59,10.50
2014,06,02,07,00,10.50
2014,06,02,07,01,10.60
2014,06,02,07,02,10.60
2014,06,02,07,03,10.60
2014,06,02,07,04,10.60
2014,06,02,07,05,10.70
2014,06,02,07,06,10.70
2014,06,02,07,07,10.70
2014,06,02,07,08,10.80
2014,06,02,07,09,10.80
2014,06,02,07,10,10.80
2014,06,02,07,11,10.80
2014,06,02,07,12,10.90
2014,06,02,07,13,10.90
2014,06,02,07,14,10.90
2014,06,02,07,15,10.90
2014,06,02,07,16,10.90
2014,06,02,07,17,10.90
2014,06,02,07,18,11.00
2014,06,02,07,19,11.00
2014,06,02,07,20,11.00
2014,06,02,07,21,11.10
2014,06,02,07,22,11.10
2014,06,02,07,23,11.10
2014,06,02,07,24,11.20
2014,06,02,07,25,11.20
2014,06,02,07,26,11.30
2014,06,02,07,27,11.30
2014,06,02,07,28,11.30
2014,06,02,07,29,11.30
2014,06,02,07,30,11.40
2014,06,02,07,31,11.40
2014,06,02,07,32,11.50
2014,06,02,07,33,11.50
2014,06,02,07,34,11.50
2014,06,02,07,35,11.60
2014,06,02,07,36,11.60
2014,06,02,07,37,11.60
2014,06,02,07,38,11.60
2014,06,02,07,39,11.70
2014,06,02,07,40,11.70
2014,06,02,07,41,11.70
2014,06,02,07,42,11.80
2014,06,02,07,43,11.80
2014,06,02,07,44,11.80
2014,06,02,07,45,11.90
2014,06,02,07,46,12.00
2014,06,02,07,47,12.00
2014,06,02,07,48,12.10
2014,06,02,07,49,12.20
2014,06,02,07,50,12.20
2014,06,02,07,51,12.30
2014,06,02,07,52,12.30
2014,06,02,07,53,12.40
2014,06,02,07,54,12.40
2014,06,02,07,55,12.50
2014,06,02,07,56,12.60
2014,06,02,07,57,12.60
2014,06,02,07,58,12.70
2014,06,02,07,59,12.70
2014,06,02,08,00,12.70
2014,06,02,08,01,12.80
2014,06,02,08,02,12.80
2014,06,02,08,03,12.90
2014,06,02,08,04,12.90
2014,06,02,08,05,13.00
2014,06,02,08,06,13.00
2014,06,02,08,07,13.10
2014,06,02,08,08,13.20
2014,06,02,08,09,13.20
2014,06,02,08,10,13.30
2014,06,02,08,11,13.30
2014,06,02,08,12,13.40
2014,06,02,08,13,13.50
2014,06,02,08,14,13.60
2014,06,02,08,15,13.60
2014,06,02,08,16,13.70
2014,06,02,08,17,13.70
2014,06,02,08,18,13.70
2014,06,02,08,19,13.80
2014,06,02,08,20,13.80
2014,06,02,08,21,13.80
2014,06,02,08,22,13.90
2014,06,02,08,23,13.90
2014,06,02,08,24,14.00
2014,06,02,08,25,14.00
2014,06,02,08,26,14.10
2014,06,02,08,27,14.10
2014,06,02,08,28,14.20
2014,06,02,08,29,14.20
2014,06,02,08,30,14.30
2014,06,02,08,31,14.30
2014,06,02,08,32,14.40
2014,06,02,08,33,14.50
2014,06,02,08,34,14.60
2014,06,02,08,35,14.60
2014,06,02,08,36,14.70
2014,06,02,08,37,14.80
2014,06,02,08,38,14.80
2014,06,02,08,39,14.90
2014,06,02,08,40,15.00
2014,06,02,08,41,15.10
2014,06,02,08,42,15.20
2014,06,02,08,43,15.30
2014,06,02,08,44,15.30
2014,06,02,08,45,15.40
2014,06,02,08,46,15.50
2014,06,02,08,47,15.60
2014,06,02,08,48,15.70
2014,06,02,08,49,15.80
2014,06,02,08,50,15.80
2014,06,02,08,51,15.90
2014,06,02,08,52,15.90
2014,06,02,08,53,16.00
2014,06,02,08,54,16.10
2014,06,02,08,55,16.10
2014,06,02,08,56,16.10
2014,06,02,08,57,16.20
2014,06,02,08,58,16.20
2014,06,02,08,59,16.20
2014,06,02,09,00,16.30
2014,06,02,09,01,16.30
2014,06,02,09,02,16.20
2014,06,02,09,03,16.20
2014,06,02,09,04,16.30
2014,06,02,09,05,16.30
2014,06,02,09,06,16.40
2014,06,02,09,07,16.40
2014,06,02,09,08,16.40
2014,06,02,09,09,16.40
2014,06,02,09,10,16.30
2014,06,02,09,11,16.30
2014,06,02,09,12,16.30
2014,06,02,09,13,16.40
2014,06,02,09,14,16.40
2014,06,02,09,15,16.40
2014,06,02,09,16,16.50
2014,06,02,09,17,16.50
2014,06,02,09,18,16.60
2014,06,02,09,19,16.60
2014,06,02,09,20,16.60
2014,06,02,09,21,16.60
2014,06,02,09,22,16.70
2014,06,02,09,23,16.70
2014,06,02,09,24,16.70
2014,06,02,09,25,16.80
2014,06,02,09,26,16.80
2014,06,02,09,27,16.90
2014,06,02,09,28,16.90
2014,06,02,09,29,16.90
2014,06,02,09,30,17.00
2014,06,02,09,31,17.10
2014,06,02,09,32,17.10
2014,06,02,09,33,17.20
2014,06,02,09,34,17.20
2014,06,02,09,35,17.20
2014,06,02,09,36,17.20
2014,06,02,09,37,17.20
2014,06,02,09,38,17.20
2014,06,02,09,39,17.20
2014,06,02,09,40,17.20
2014,06,02,09,41,17.30
2014,06,02,09,42,17.30
2014,06,02,09,43,17.30
2014,06,02,09,44,17.40
2014,06,02,09,45,17.40
2014,06,02,09,46,17.40
2014,06,02,09,47,17.40
2014,06,02,09,48,17.40
2014,06,02,09,49,17.40
2014,06,02,09,50,17.40
2014,06,02,09,51,17.40
2014,06,02,09,52,17.40
2014,06,02,09,53,17.40
2014,06,02,09,54,17.50
2014,06,02,09,55,17.60
2014,06,02,09,56,17.60
2014,06,02,09,57,17.70
2014,06,02,09,58,17.70
2014,06,02,09,59,17.80
2014,06,02,10,00,17.80
2014,06,02,10,01,17.90
2014,06,02,10,02,18.00
2014,06,02,10,03,18.10
2014,06,02,10,04,18.10
2014,06,02,10,05,18.20
2014,06,02,10,06,18.20
2014,06,02,10,07,18.20
2014,06,02,10,08,18.20
2014,06,02,10,09,18.20
2014,06,02,10,10,18.10
2014,06,02,10,11,18.10
2014,06,02,10,12,18.00
2014,06,02,10,13,18.00
2014,06,02,10,14,18.00
2014,06,02,10,15,17.90
2014,06,02,10,16,17.90
2014,06,02,10,17,17.90
2014,06,02,10,18,17.90
2014,06,02,10,19,17.90
2014,06,02,10,20,17.90
2014,06,02,10,21,17.90
2014,06,02,10,22,18.00
2014,06,02,10,23,18.00
2014,06,02,10,24,18.10
2014,06,02,10,25,18.10
2014,06,02,10,26,18.10
2014,06,02,10,27,18.20
2014,06,02,10,28,18.30
2014,06,02,10,29,18.30
2014,06,02,10,30,18.40
2014,06,02,10,31,18.50
2014,06,02,10,32,18.50
2014,06,02,10,33,18.60
2014,06,02,10,34,18.80
2014,06,02,10,35,18.90
2014,06,02,10,36,19.00
2014,06,02,10,37,19.00
2014,06,02,10,38,19.10
2014,06,02,10,39,19.10
2014,06,02,10,40,19.20
2014,06,02,10,41,19.20
2014,06,02,10,42,19.30
2014,06,02,10,43,19.30
2014,06,02,10,44,19.40
2014,06,02,10,45,19.40
2014,06,02,10,46,19.40
2014,06,02,10,47,19.40
2014,06,02,10,48,19.40
2014,06,02,10,49,19.40
2014,06,02,10,50,19.30
2014,06,02,10,51,19.20
2014,06,02,10,52,19.20
2014,06,02,10,53,19.20
2014,06,02,10,54,19.10
2014,06,02,10,55,19.10
2014,06,02,10,56,19.10
2014,06,02,10,57,19.20
2014,06,02,10,58,19.20
2014,06,02,10,59,19.30
2014,06,02,11,00,19.30
2014,06,02,11,01,19.20
2014,06,02,11,02,19.10
2014,06,02,11,03,19.00
2014,06,02,11,04,18.90
2014,06,02,11,05,18.80
2014,06,02,11,06,18.70
2014,06,02,11,07,18.70
2014,06,02,11,08,18.70
2014,06,02,11,09,18.70
2014,06,02,11,10,18.60
2014,06,02,11,11,18.60
2014,06,02,11,12,18.50
2014,06,02,11,13,18.40
2014,06,02,11,14,18.20
2014,06,02,11,15,18.10
2014,06,02,11,16,18.10
2014,06,02,11,17,18.00
2014,06,02,11,18,18.00
2014,06,02,11,19,18.10
2014,06,02,11,20,18.20
2014,06,02,11,21,18.30
2014,06,02,11,22,18.30
2014,06,02,11,23,18.40
2014,06,02,11,24,18.40
2014,06,02,11,25,18.40
2014,06,02,11,26,18.40
2014,06,02,11,27,18.40
2014,06,02,11,28,18.40
2014,06,02,11,29,18.40
2014,06,02,11,30,18.40
2014,06,02,11,31,18.40
2014,06,02,11,32,18.30
2014,06,02,11,33,18.40
2014,06,02,11,34,18.40
2014,06,02,11,35,18.50
2014,06,02,11,36,18.50
2014,06,02,11,37,18.50
2014,06,02,11,38,18.60
2014,06,02,11,39,18.60
2014,06,02,11,40,18.60
2014,06,02,11,41,18.60
2014,06,02,11,42,18.60
2014,06,02,11,43,18.60
2014,06,02,11,44,18.60
2014,06,02,11,45,18.50
2014,06,02,11,46,18.60
2014,06,02,11,47,18.60
2014,06,02,11,48,18.60
2014,06,02,11,49,18.60
2014,06,02,11,50,18.60
2014,06,02,11,51,18.60
2014,06,02,11,52,18.60
2014,06,02,11,53,18.70
2014,06,02,11,54,18.70
2014,06,02,11,55,18.80
2014,06,02,11,56,18.80
2014,06,02,11,57,18.90
2014,06,02,11,58,18.90
2014,06,02,11,59,19.00
2014,06,02,12,00,19.00
2014,06,02,12,01,18.90
2014,06,02,12,02,18.90
2014,06,02,12,03,18.90
2014,06,02,12,04,19.00
2014,06,02,12,05,19.00
2014,06,02,12,06,19.10
2014,06,02,12,07,19.20
2014,06,02,12,08,19.20
2014,06,02,12,09,19.30
2014,06,02,12,10,19.30
2014,06,02,12,11,19.30
2014,06,02,12,12,19.40
2014,06,02,12,13,19.30
2014,06,02,12,14,19.20
2014,06,02,12,15,19.10
2014,06,02,12,16,19.10
2014,06,02,12,17,19.10
2014,06,02,12,18,19.00
2014,06,02,12,19,18.90
2014,06,02,12,20,18.90
2014,06,02,12,21,18.90
2014,06,02,12,22,19.00
2014,06,02,12,23,19.10
2014,06,02,12,24,19.20
2014,06,02,12,25,19.30
2014,06,02,12,26,19.40
2014,06,02,12,27,19.50
2014,06,02,12,28,19.60
2014,06,02,12,29,19.60
2014,06,02,12,30,19.50
2014,06,02,12,31,19.40
2014,06,02,12,32,19.30
2014,06,02,12,33,19.30
2014,06,02,12,34,19.20
2014,06,02,12,35,19.20
2014,06,02,12,36,19.10
2014,06,02,12,37,19.00
2014,06,02,12,38,19.00
2014,06,02,12,39,18.90
2014,06,02,12,40,18.80
2014,06,02,12,41,18.70
2014,06,02,12,42,18.60
2014,06,02,12,43,18.60
2014,06,02,12,44,18.60
2014,06,02,12,45,18.60
2014,06,02,12,46,18.60
2014,06,02,12,47,18.60
2014,06,02,12,48,18.60
2014,06,02,12,49,18.60
2014,06,02,12,50,18.60
2014,06,02,12,51,18.60
2014,06,02,12,52,18.70
2014,06,02,12,53,18.70
2014,06,02,12,54,18.70
2014,06,02,12,55,18.60
2014,06,02,12,56,18.50
2014,06,02,12,57,18.50
2014,06,02,12,58,18.40
2014,06,02,12,59,18.40
2014,06,02,13,00,18.50
2014,06,02,13,01,18.50
2014,06,02,13,02,18.60
2014,06,02,13,03,18.60
2014,06,02,13,04,18.50
2014,06,02,13,05,18.50
2014,06,02,13,06,18.50
2014,06,02,13,07,18.40
2014,06,02,13,08,18.50
2014,06,02,13,09,18.50
2014,06,02,13,10,18.50
2014,06,02,13,11,18.40
2014,06,02,13,12,18.40
2014,06,02,13,13,18.40
2014,06,02,13,14,18.40
2014,06,02,13,15,18.40
2014,06,02,13,16,18.40
2014,06,02,13,17,18.40
2014,06,02,13,18,18.50
2014,06,02,13,19,18.50
2014,06,02,13,20,18.50
2014,06,02,13,21,18.60
2014,06,02,13,22,18.70
2014,06,02,13,23,18.80
2014,06,02,13,24,18.90
2014,06,02,13,25,19.00
2014,06,02,13,26,19.00
2014,06,02,13,27,19.00
2014,06,02,13,28,19.10
2014,06,02,13,29,19.10
2014,06,02,13,30,19.20
2014,06,02,13,31,19.10
2014,06,02,13,32,19.10
2014,06,02,13,33,19.10
2014,06,02,13,34,19.00
2014,06,02,13,35,19.00
2014,06,02,13,36,19.10
2014,06,02,13,37,19.10
2014,06,02,13,38,19.20
2014,06,02,13,39,19.20
2014,06,02,13,40,19.30
2014,06,02,13,41,19.30
2014,06,02,13,42,19.40
2014,06,02,13,43,19.50
2014,06,02,13,44,19.60
2014,06,02,13,45,19.70
2014,06,02,13,46,19.70
2014,06,02,13,47,19.70
2014,06,02,13,48,19.80
2014,06,02,13,49,19.70
2014,06,02,13,50,19.80
2014,06,02,13,51,19.80
2014,06,02,13,52,19.80
2014,06,02,13,53,19.80
2014,06,02,13,54,19.80
2014,06,02,13,55,19.80
2014,06,02,13,56,19.80
2014,06,02,13,57,19.80
2014,06,02,13,58,19.70
2014,06,02,13,59,19.60
2014,06,02,14,00,19.50
2014,06,02,14,01,19.40
2014,06,02,14,02,19.30
2014,06,02,14,03,19.30
2014,06,02,14,04,19.30
2014,06,02,14,05,19.30
2014,06,02,14,06,19.20
2014,06,02,14,07,19.20
2014,06,02,14,08,19.20
2014,06,02,14,09,19.20
2014,06,02,14,10,19.10
2014,06,02,14,11,19.00
2014,06,02,14,12,19.00
2014,06,02,14,13,18.90
2014,06,02,14,14,18.90
2014,06,02,14,15,18.80
2014,06,02,14,16,18.80
2014,06,02,14,17,18.80
2014,06,02,14,18,18.90
2014,06,02,14,19,18.90
2014,06,02,14,20,18.90
2014,06,02,14,21,19.00
2014,06,02,14,22,19.00
2014,06,02,14,23,19.00
2014,06,02,14,24,19.00
2014,06,02,14,25,19.00
2014,06,02,14,26,19.10
2014,06,02,14,27,19.10
2014,06,02,14,28,19.20
2014,06,02,14,29,19.20
2014,06,02,14,30,19.30
2014,06,02,14,31,19.40
2014,06,02,14,32,19.40
2014,06,02,14,33,19.40
2014,06,02,14,34,19.50
2014,06,02,14,35,19.50
2014,06,02,14,36,19.50
2014,06,02,14,37,19.50
2014,06,02,14,38,19.50
2014,06,02,14,39,19.50
2014,06,02,14,40,19.50
2014,06,02,14,41,19.40
2014,06,02,14,42,19.40
2014,06,02,14,43,19.40
2014,06,02,14,44,19.40
2014,06,02,14,45,19.40
2014,06,02,14,46,19.40
2014,06,02,14,47,19.40
2014,06,02,14,48,19.40
2014,06,02,14,49,19.30
2014,06,02,14,50,19.30
2014,06,02,14,51,19.30
2014,06,02,14,52,19.20
2014,06,02,14,53,19.20
2014,06,02,14,54,19.20
2014,06,02,14,55,19.20
2014,06,02,14,56,19.20
2014,06,02,14,57,19.20
2014,06,02,14,58,19.20
2014,06,02,14,59,19.20
2014,06,02,15,00,19.30
2014,06,02,15,01,19.30
2014,06,02,15,02,19.30
2014,06,02,15,03,19.30
2014,06,02,15,04,19.30
2014,06,02,15,05,19.30
2014,06,02,15,06,19.30
2014,06,02,15,07,19.30
2014,06,02,15,08,19.40
2014,06,02,15,09,19.40
2014,06,02,15,10,19.50
2014,06,02,15,11,19.60
2014,06,02,15,12,19.70
2014,06,02,15,13,19.80
2014,06,02,15,14,19.90
2014,06,02,15,15,20.00
2014,06,02,15,16,20.10
2014,06,02,15,17,20.30
2014,06,02,15,18,20.40
2014,06,02,15,19,20.50
2014,06,02,15,20,20.60
2014,06,02,15,21,20.70
2014,06,02,15,22,20.80
2014,06,02,15,23,20.80
2014,06,02,15,24,20.90
2014,06,02,15,25,21.00
2014,06,02,15,26,21.10
2014,06,02,15,27,21.20
2014,06,02,15,28,21.30
2014,06,02,15,29,21.30
2014,06,02,15,30,21.40
2014,06,02,15,31,21.40
2014,06,02,15,32,21.50
2014,06,02,15,33,21.50
2014,06,02,15,34,21.50
2014,06,02,15,35,21.50
2014,06,02,15,36,21.50
2014,06,02,15,37,21.60
2014,06,02,15,38,21.60
2014,06,02,15,39,21.60
2014,06,02,15,40,21.60
2014,06,02,15,41,21.70
2014,06,02,15,42,21.90
2014,06,02,15,43,22.10
2014,06,02,15,44,22.20
2014,06,02,15,45,22.40
2014,06,02,15,46,22.50
2014,06,02,15,47,22.70
2014,06,02,15,48,22.80
2014,06,02,15,49,22.80
2014,06,02,15,50,22.90
2014,06,02,15,51,22.90
2014,06,02,15,52,23.00
2014,06,02,15,53,23.00
2014,06,02,15,54,23.10
2014,06,02,15,55,23.30
2014,06,02,15,56,23.40
2014,06,02,15,57,23.50
2014,06,02,15,58,23.50
2014,06,02,15,59,23.60
2014,06,02,16,00,23.60
2014,06,02,16,01,23.60
2014,06,02,16,02,23.60
2014,06,02,16,03,23.50
2014,06,02,16,04,23.50
2014,06,02,16,05,23.50
2014,06,02,16,06,23.40
2014,06,02,16,07,23.50
2014,06,02,16,08,23.50
2014,06,02,16,09,23.50
2014,06,02,16,10,23.60
2014,06,02,16,11,23.60
2014,06,02,16,12,23.60
2014,06,02,16,13,23.70
2014,06,02,16,14,23.70
2014,06,02,16,15,23.80
2014,06,02,16,16,23.80
2014,06,02,16,17,23.80
2014,06,02,16,18,23.80
2014,06,02,16,19,23.80
2014,06,02,16,20,23.80
2014,06,02,16,21,23.80
2014,06,02,16,22,23.90
2014,06,02,16,23,23.90
2014,06,02,16,24,24.00
2014,06,02,16,25,24.10
2014,06,02,16,26,24.10
2014,06,02,16,27,24.10
2014,06,02,16,28,24.20
2014,06,02,16,29,24.20
2014,06,02,16,30,24.10
2014,06,02,16,31,24.20
2014,06,02,16,32,24.20
2014,06,02,16,33,24.20
2014,06,02,16,34,24.20
2014,06,02,16,35,24.20
2014,06,02,16,36,24.20
2014,06,02,16,37,24.20
2014,06,02,16,38,24.20
2014,06,02,16,39,24.20
2014,06,02,16,40,24.20
2014,06,02,16,41,24.20
2014,06,02,16,42,24.20
2014,06,02,16,43,24.20
2014,06,02,16,44,24.20
2014,06,02,16,45,24.20
2014,06,02,16,46,24.30
2014,06,02,16,47,24.30
2014,06,02,16,48,24.30
2014,06,02,16,49,24.30
2014,06,02,16,50,24.30
2014,06,02,16,51,24.30
2014,06,02,16,52,24.30
2014,06,02,16,53,24.30
2014,06,02,16,54,24.30
2014,06,02,16,55,24.30
2014,06,02,16,56,24.30
2014,06,02,16,57,24.30
2014,06,02,16,58,24.30
2014,06,02,16,59,24.30
2014,06,02,17,00,24.30
2014,06,02,17,01,24.30
2014,06,02,17,02,24.40
2014,06,02,17,03,24.40
2014,06,02,17,04,24.40
2014,06,02,17,05,24.40
2014,06,02,17,06,24.40
2014,06,02,17,07,24.40
2014,06,02,17,08,24.30
2014,06,02,17,09,24.20
2014,06,02,17,10,24.20
2014,06,02,17,11,24.10
2014,06,02,17,12,24.10
2014,06,02,17,13,24.10
2014,06,02,17,14,24.10
2014,06,02,17,15,24.10
2014,06,02,17,16,24.10
2014,06,02,17,17,24.20
2014,06,02,17,18,24.20
2014,06,02,17,19,24.20
2014,06,02,17,20,24.10
2014,06,02,17,21,24.10
2014,06,02,17,22,24.10
2014,06,02,17,23,24.10
2014,06,02,17,24,24.20
2014,06,02,17,25,24.20